User: anonymous   Login
Location: Unspecified
(0.0000°N, 0.0000°E)
Time: 14:53:53
(UTC+00:00)
Language:

XIAOXIANG 2 - Orbit

View from above orbital plane
View from above orbital plane
View from above satellite
View from above satellite

Ground track
Ground track

The orbit data is extracted from the following two-line orbital elements,

1 43155U 18008A   19048.43348697  .00000567  00000-0  37757-4 0  9992
2 43155  97.4993 123.4646 0018718  26.6150 102.5373 15.10935380 59518
Epoch (UTC): 17 February 2019 10:24:13
Eccentricity: 0.0018718
inclination: 97.4993°
perigee height: 520 km
apogee height: 546 km
right ascension of ascending node: 123.4646°
argument of perigee: 26.6150°
revolutions per day: 15.10935380
mean anomaly at epoch: 102.5373°
orbit number at epoch: 5951

The dashed part of the orbit path shows where the satellite is in the earth's shadow,  

DLR